When you browse on this site, cookies collect data to enhance your experience and personalize the content and advertising you see.
Visit our Privacy Policy to learn more. By continuing to use the site, you agree to this use of cookies and data.
  • In Austria
  • List of Countries
  • For 7 days
  • Water Temperature
  • Weather Map
  • News
  • Weather Widgets
  • user-avatar
    Login

    Hourly Weather Tynda

    Today, 5 April, Sunday

    Time Temperature Precipitation Wind Pressure Humidity
    00:00 -10°C° 0 mm 1 mps 709 mmHg 89%
    01:00 -11°C° 0 mm 1 mps 709 mmHg 88%
    02:00 -11°C° 0 mm 1 mps 708 mmHg 88%
    03:00 -11°C° 0 mm 1 mps 708 mmHg 88%
    04:00 -10°C° 0 mm 1 mps 708 mmHg 89%
    05:00 -9°C° 0 mm 0 mps 708 mmHg 90%
    06:00 -9°C° 0.9 mm 1 mps 709 mmHg 91%
    07:00 -8°C° 0.9 mm 1 mps 709 mmHg 92%
    08:00 -6°C° 0 mm 0 mps 709 mmHg 94%
    09:00 -4°C° 0.2 mm 1 mps 710 mmHg 93%
    10:00 -2°C° 0.2 mm 1 mps 710 mmHg 93%
    11:00 -1°C° 0.2 mm 1 mps 710 mmHg 92%
    12:00 -2°C° 0.2 mm 2 mps 710 mmHg 88%
    13:00 -2°C° 0.2 mm 3 mps 710 mmHg 85%
    14:00 -2°C° 0 mm 4 mps 710 mmHg 80%
    15:00 -3°C° 0.1 mm 4 mps 711 mmHg 78%
    16:00 -5°C° 0.1 mm 5 mps 711 mmHg 77%
    17:00 -6°C° 0.1 mm 5 mps 711 mmHg 75%
    18:00 -8°C° 0 mm 4 mps 712 mmHg 78%
    19:00 -9°C° 0 mm 3 mps 712 mmHg 80%
    20:00 -12°C° 0 mm 2 mps 712 mmHg 83%
    21:00 -13°C° 0 mm 2 mps 712 mmHg 83%
    22:00 -14°C° 0 mm 2 mps 713 mmHg 83%
    23:00 -15°C° 0 mm 2 mps 713 mmHg 83%

    Tomorrow, 6 April, Monday

    Time Temperature Precipitation Wind Pressure Humidity
    00:00 -15°C° 0 mm 2 mps 713 mmHg 85%
    01:00 -16°C° 0 mm 2 mps 713 mmHg 87%
    02:00 -16°C° 0 mm 2 mps 712 mmHg 88%
    03:00 -16°C° 0 mm 2 mps 712 mmHg 90%
    04:00 -17°C° 0 mm 2 mps 712 mmHg 91%
    05:00 -17°C° 0 mm 2 mps 712 mmHg 92%
    06:00 -15°C° 0 mm 2 mps 713 mmHg 91%
    07:00 -13°C° 0 mm 2 mps 713 mmHg 89%
    08:00 -10°C° 0 mm 2 mps 713 mmHg 88%
    09:00 -8°C° 0 mm 2 mps 713 mmHg 86%
    10:00 -7°C° 0 mm 3 mps 713 mmHg 85%
    11:00 -6°C° 0 mm 3 mps 713 mmHg 84%
    12:00 -5°C° 0.1 mm 3 mps 712 mmHg 86%
    13:00 -4°C° 0.1 mm 4 mps 712 mmHg 87%
    14:00 -3°C° 0.1 mm 4 mps 712 mmHg 89%
    15:00 -2°C° 0.2 mm 3 mps 712 mmHg 87%
    16:00 -2°C° 0.2 mm 3 mps 712 mmHg 85%
    17:00 -1°C° 0.2 mm 2 mps 712 mmHg 84%
    18:00 -3°C° 0 mm 2 mps 712 mmHg 85%
    19:00 -4°C° 0 mm 2 mps 713 mmHg 86%
    20:00 -6°C° 0 mm 2 mps 713 mmHg 88%
    21:00 -7°C° 0 mm 2 mps 713 mmHg 88%
    22:00 -8°C° 0 mm 2 mps 713 mmHg 89%
    23:00 -9°C° 0 mm 2 mps 713 mmHg 89%

    Day after tomorrow, 7 April, Tuesday

    Time Temperature Precipitation Wind Pressure Humidity
    00:00 -9°C° 0 mm 2 mps 713 mmHg 89%
    01:00 -10°C° 0 mm 2 mps 713 mmHg 90%
    02:00 -10°C° 0 mm 2 mps 713 mmHg 91%
    03:00 -12°C° 0 mm 2 mps 713 mmHg 91%
    04:00 -12°C° 0 mm 2 mps 713 mmHg 91%
    05:00 -13°C° 0 mm 2 mps 714 mmHg 92%
    06:00 -10°C° 0 mm 2 mps 714 mmHg 90%
    07:00 -8°C° 0 mm 2 mps 714 mmHg 88%
    08:00 -6°C° 0 mm 2 mps 714 mmHg 86%
    09:00 -5°C° 0 mm 2 mps 715 mmHg 86%
    10:00 -4°C° 0 mm 3 mps 715 mmHg 86%
    11:00 -2°C° 0 mm 3 mps 715 mmHg 86%
    12:00 -1°C° 0 mm 3 mps 715 mmHg 86%
    13:00 -1°C° 0 mm 3 mps 715 mmHg 85%
    14:00 0°C° 0 mm 3 mps 714 mmHg 84%
    15:00 +1°C° 0 mm 2 mps 714 mmHg 84%
    16:00 -1°C° 0 mm 2 mps 714 mmHg 84%
    17:00 -1°C° 0 mm 2 mps 714 mmHg 84%
    18:00 -3°C° 0 mm 2 mps 715 mmHg 85%
    19:00 -3°C° 0 mm 1 mps 715 mmHg 87%
    20:00 -6°C° 0 mm 1 mps 715 mmHg 88%
    21:00 -7°C° 0 mm 1 mps 715 mmHg 88%
    22:00 -7°C° 0 mm 1 mps 715 mmHg 89%
    23:00 -8°C° 0 mm 1 mps 715 mmHg 89%

    8 April, Wednesday

    Time Temperature Precipitation Wind Pressure Humidity
    00:00 -9°C° 0 mm 1 mps 715 mmHg 89%
    01:00 -9°C° 0 mm 1 mps 715 mmHg 89%
    02:00 -10°C° 0 mm 1 mps 715 mmHg 89%
    03:00 -10°C° 0 mm 1 mps 715 mmHg 90%
    04:00 -10°C° 0 mm 1 mps 716 mmHg 90%
    05:00 -11°C° 0 mm 1 mps 716 mmHg 90%
    06:00 -9°C° 0 mm 1 mps 716 mmHg 87%
    07:00 -6°C° 0 mm 1 mps 716 mmHg 84%
    08:00 -3°C° 0 mm 1 mps 717 mmHg 81%
    09:00 -2°C° 0 mm 1 mps 716 mmHg 81%
    10:00 -1°C° 0 mm 1 mps 716 mmHg 82%
    11:00 +1°C° 0 mm 1 mps 716 mmHg 82%
    12:00 +1°C° 0 mm 1 mps 716 mmHg 82%
    13:00 +2°C° 0 mm 1 mps 716 mmHg 82%
    14:00 +2°C° 0 mm 1 mps 716 mmHg 82%
    15:00 +2°C° 0 mm 1 mps 716 mmHg 84%
    16:00 +1°C° 0 mm 1 mps 716 mmHg 85%
    17:00 +1°C° 0 mm 1 mps 716 mmHg 87%
    18:00 -1°C° 0 mm 1 mps 716 mmHg 89%
    19:00 -3°C° 0 mm 1 mps 716 mmHg 90%
    20:00 -6°C° 0 mm 1 mps 716 mmHg 92%
    21:00 -6°C° 0 mm 1 mps 716 mmHg 92%
    22:00 -7°C° 0 mm 1 mps 716 mmHg 93%
    23:00 -7°C° 0 mm 1 mps 716 mmHg 93%

    9 April, Thursday

    Time Temperature Precipitation Wind Pressure Humidity
    00:00 -7°C° 0 mm 1 mps 716 mmHg 94%
    01:00 -7°C° 0 mm 1 mps 716 mmHg 96%
    02:00 -8°C° 0 mm 1 mps 716 mmHg 97%
    03:00 -7°C° 0 mm 1 mps 716 mmHg 97%
    04:00 -7°C° 0 mm 1 mps 716 mmHg 97%
    05:00 -7°C° 0 mm 1 mps 716 mmHg 97%
    06:00 -6°C° 0 mm 1 mps 716 mmHg 95%
    07:00 -4°C° 0 mm 1 mps 716 mmHg 92%
    08:00 -3°C° 0 mm 1 mps 716 mmHg 90%
    09:00 -4°C° 0 mm 2 mps 716 mmHg 89%
    10:00 -2°C° 0 mm 2 mps 716 mmHg 87%
    11:00 -1°C° 0 mm 2 mps 716 mmHg 86%
    12:00 -1°C° 0 mm 2 mps 716 mmHg 86%
    13:00 +1°C° 0 mm 2 mps 716 mmHg 86%
    14:00 +2°C° 0 mm 2 mps 716 mmHg 87%
    15:00 +1°C° 0 mm 2 mps 715 mmHg 88%
    16:00 +1°C° 0 mm 2 mps 715 mmHg 89%
    17:00 +1°C° 0 mm 2 mps 715 mmHg 91%
    18:00 -2°C° 0 mm 2 mps 715 mmHg 92%
    19:00 -1°C° 0 mm 1 mps 716 mmHg 93%
    20:00 -2°C° 0 mm 1 mps 716 mmHg 94%
    21:00 -3°C° 0 mm 1 mps 716 mmHg 94%
    22:00 -3°C° 0 mm 1 mps 716 mmHg 95%
    23:00 -4°C° 0 mm 1 mps 716 mmHg 95%

    10 April, Friday

    Time Temperature Precipitation Wind Pressure Humidity
    00:00 -4°C° 0 mm 1 mps 716 mmHg 95%
    01:00 -6°C° 0 mm 1 mps 715 mmHg 96%
    02:00 -6°C° 0 mm 1 mps 715 mmHg 96%
    03:00 -6°C° 0 mm 1 mps 715 mmHg 97%
    04:00 -6°C° 0 mm 1 mps 715 mmHg 97%
    05:00 -6°C° 0 mm 1 mps 715 mmHg 97%
    06:00 -4°C° 0 mm 1 mps 715 mmHg 94%
    07:00 -3°C° 0 mm 1 mps 715 mmHg 91%
    08:00 -1°C° 0 mm 1 mps 715 mmHg 88%
    09:00 -2°C° 0 mm 2 mps 715 mmHg 87%
    10:00 -1°C° 0 mm 2 mps 714 mmHg 85%
    11:00 +1°C° 0 mm 2 mps 714 mmHg 83%
    12:00 +2°C° 0 mm 2 mps 714 mmHg 83%
    13:00 +2°C° 0 mm 2 mps 714 mmHg 83%
    14:00 +2°C° 0 mm 2 mps 713 mmHg 83%
    15:00 +2°C° 0 mm 2 mps 713 mmHg 85%
    16:00 +2°C° 0 mm 2 mps 713 mmHg 86%
    17:00 +1°C° 0 mm 2 mps 713 mmHg 88%
    18:00 -1°C° 0 mm 2 mps 713 mmHg 89%
    19:00 -1°C° 0 mm 1 mps 713 mmHg 91%
    20:00 -2°C° 0 mm 1 mps 714 mmHg 93%
    21:00 -3°C° 0 mm 1 mps 714 mmHg 93%
    22:00 -3°C° 0 mm 1 mps 714 mmHg 93%
    23:00 -3°C° 0 mm 1 mps 714 mmHg 93%
    Show more